Regional Weather Roundup
Issued by NWS

Home | Current Version | Previous Version | Graphics & Text | Print | Product List | Glossary On
Versions: 1 2 3 4 5 6 7 8 9 10 11 12 13 14 15 16 17 18 19 20 21 22 23 24 25 26 27 28 29 30 31 32 33 34 35 36 37 38 39 40 41 42 43 44 45 46 47 48 49 50
000
ASUS43 KMPX 271401
RWRMN
WEATHER ROUNDUP FOR MINNESOTA
NATIONAL WEATHER SERVICE TWIN CITIES/CHANHASSEN MN
800 AM CST THU NOV 27 2014


NOTE: "FAIR" INDICATES FEW OR NO CLOUDS BELOW 12,000 FEET WITH NO
SIGNIFICANT WEATHER AND/OR OBSTRUCTIONS TO VISIBILITY. N/A MEANS
CURRENT SKY AND/OR WEATHER CONDITIONS ARE NOT AVAILABLE.

MNZ060>063-068>070-271500-
   Twin Cities Metro

CITY           SKY/WX    TMP DP  RH WIND       PRES   REMARKS
TWIN CITIES    PTCLDY    -2  -7  79 NW5       30.50S WCI -12
ST PAUL        PTCLDY    -1  -6  79 NW7       30.52S WCI -14
CRYSTAL        PTCLDY    -2  -8  76 NW5       30.49S WCI -12
BLAINE         CLEAR     -2  -6  84 NW3       30.48F
LAKEVILLE      MOCLDY    -8  -9  92 W3        30.49S
EDEN PRAIRIE   MOCLDY    -2  -7  79 NW5       30.49S WCI -12
SOUTH ST PAUL  PTCLDY     0  -6  76 N5        30.50S WCI -10
LAKE ELMO      FAIR       0  -6  78 CALM      30.50S
$$
MNZ001>005-007-008-013>017-022>024-027-028-271500-
   Northwest Minnesota

CITY           SKY/WX    TMP DP  RH WIND       PRES   REMARKS
BEMIDJI        PTCLDY   -23 -28  75 CALM      30.44S
HALLOCK        PTCLDY   -15 -20  76 SE7       30.48S WCI -31
ROSEAU         PTCLDY   -15 -20  76 S5        30.47R WCI -27
WARROAD        PTCLDY   -15 -20  76 SW5       30.46R WCI -27
THIEF RVR FALL MOCLDY   -15 -20  76 CALM      30.47R
CROOKSTON      MOCLDY   -15 -18  84 S3        30.52F
FOSSTON        PTCLDY   -22 -27  76 CALM      30.47S
DETROIT LAKES  PTCLDY    -9 -15  77 CALM      30.47S
MOORHEAD       PTCLDY   -11 -15  84 CALM      30.53S
PARK RAPIDS    FAIR     -16 -21  78 CALM      30.44R
MAHNOMEN       FAIR     -15 -19  79 SW5       30.48R WCI -27
$$
MNZ006-009>011-018-025>026-271500-
   North Central Minnesota

CITY           SKY/WX    TMP DP  RH WIND       PRES   REMARKS
BAUDETTE       MOCLDY   -18 -23  77 SW5       30.45R WCI -31
FLAG ISLAND    MOCLDY   -17 -22  76 CALM      30.44R
INTL FALLS     MOCLDY   -19 -25  73 CALM      30.44F
WASKISH        MOCLDY   -17 -20  83 CALM      30.45S
BIG FORK       PTCLDY   -17 -24  70 CALM      30.44S
LONGVILLE      PTCLDY   -13 -17  84 CALM      30.45S
GRAND RAPIDS   PTCLDY   -13 -18  77 CALM      30.41F
CRANE LAKE     PTCLDY   -18 -24  76 CALM      30.47S
ORR            PTCLDY   -17 -22  76 CALM      30.40R
COOK           PTCLDY   -20 -26  76 CALM      30.43R
WALKER         FAIR     -16 -21  80 W3        30.45S
$$
MNZ012-019>021-037-271500-
   Northeast Minnesota

CITY           SKY/WX    TMP DP  RH WIND       PRES   REMARKS
DULUTH         PTCLDY    -9 -15  75 NW10      30.38F WCI -27
ELY            MOCLDY   -20 -26  76 CALM      30.40S
HIBBING        PTCLDY   -16 -22  74 CALM      30.43R
EVELETH        LGT SNOW  -9 -17  70 S3        30.42S VSB 1
DULUTH HARBOR  PTCLDY     0  -8  71 CALM      30.50R
TWO HARBORS    PTCLDY    -2  -9  71 NW6       30.38F WCI -14
SILVER BAY     PTCLDY    -6 -11  77 CALM      30.39S
GRAND MARAIS     N/A     -3 -13  62 N21G35    30.39F WCI -26
G MARAIS ARPRT CLEAR    -13 -18  77 N10       30.29S WCI -32
$$
MNZ029>031-032-039>041-046>048-054>057-064-271500-
   West Central Minnesota

CITY           SKY/WX    TMP DP  RH WIND       PRES   REMARKS
FERGUS FALLS   FAIR     -11 -18  70 CALM      30.55S
WHEATON        PTCLDY   -11 -15  84 CALM      30.54S
MORRIS         PTCLDY    -9 -15  77 N7        30.50R WCI -24
ALEXANDRIA     PTCLDY   -10 -13  86 W3        30.47S
ELBOW LAKE     FAIR     -12 -16  82 W3        30.50R FOG
WADENA         PTCLDY   -11 -15  84 CALM      30.46R
GLENWOOD       PTCLDY    -9 -13  84 W3        30.48S
APPLETON       PTCLDY   -11 -17  77 CALM      30.53R
BENSON         PTCLDY   -11 -17  77 N3        30.51R
ORTONVILLE     PTCLDY    -9 -15  77 CALM      30.51R
MADISON        PTCLDY    -9 -15  77 W5        30.53R WCI -21
WILLMAR        FAIR      -9 -15  77 NW5       30.51S WCI -21
$$
MNZ033>034-036-042>043-049>051-058-059-271500-
   Central Minnesota

CITY           SKY/WX    TMP DP  RH WIND       PRES   REMARKS
ST CLOUD       MOCLDY    -6 -11  79 NW5       30.50R WCI -17
SAUK CENTRE    FAIR     -11 -15  82 W6        30.49R WCI -24
PAYNESVILLE    PTCLDY   -13 -16  87 SW3       30.50S
AITKIN         PTCLDY    -8 -15  71 CALM      30.44S
PINE RIVER     PTCLDY   -13 -17  84 CALM      30.48R
BRAINERD       MOCLDY    -8 -12  83 NW3       30.46F
STAPLES        PTCLDY   -11 -17  77 W3        30.46S
LONG PRAIRIE   FAIR      -9 -15  77 CALM      30.47S
LITTLE FALLS   PTCLDY    -9 -15  77 CALM      30.49S
LITCHFIELD     CLEAR     -6  -9  84 W3        30.50S
BUFFALO        MOCLDY    -4  -8  81 W5        30.51S WCI -15
MAPLE LAKE     MOCLDY    -4  -8  85 W5        30.51R WCI -15
$$
MNZ037-044-045-052-053-271500-
   East Central Minnesota

CITY           SKY/WX    TMP DP  RH WIND       PRES   REMARKS
PRINCETON      PTCLDY    -4  -9  77 CALM      30.48F
MORA             N/A    N/A N/A N/A MISG        N/A
CAMBRIDGE      PTCLDY    -2  -9  71 CALM      30.47F
RUSH CITY      MOCLDY    -4  -8  81 N3        30.49R
MOOSE LAKE     FAIR      -6 -11  77 N3        30.44F
HINCKLEY         N/A     -4  -8  84 CALM      30.48R
CLOQUET        PTCLDY    -9 -15  77 NW6       30.42R WCI -23
MCGREGOR       PTCLDY    -8 -11  84 NW3       30.45S
$$
MNZ071>073-080-081-089-090-097-098-271500-
   Southwest Minnesota

CITY           SKY/WX    TMP DP  RH WIND       PRES   REMARKS
MONTEVIDEO     PTCLDY    -9 -15  77 CALM      30.53S
GRANITE FALLS  PTCLDY   -11 -15  82 NW3       30.53F
CANBY          PTCLDY   -11 -15  82 W3        30.52S
MARSHALL       PTCLDY   -13 -18  77 CALM      30.49S
REDWOOD FALLS  PTCLDY    -9 -13  83 N3        30.51F
OLIVIA         PTCLDY    -8 -13  77 NW3       30.51F
PIPESTONE      PTCLDY    -6 -11  77 CALM      30.42F
WINDOM         PTCLDY   -11 -15  84 NW7       30.46S WCI -26
WORTHINGTON    PTCLDY    -9 -11  92 CALM      30.45F
JACKSON        PTCLDY   -11 -17  77 W6        30.47R WCI -25
TRACY          MOCLDY   -10 -15  78 NW7       30.48F WCI -25
SLAYTON        MOCLDY    -8 -12  83 CALM      30.45S
$$
MNZ065>067-074>077-082>085-091>093-271500-
   South Central Minnesota

CITY           SKY/WX    TMP DP  RH WIND       PRES   REMARKS
MANKATO        PTCLDY    -9 -15  77 NW5       30.49S WCI -21
NEW ULM        PTCLDY   -17 -20  83 NW5       30.51F WCI -29
ST JAMES       PTCLDY   -13 -18  77 W9        30.51S WCI -31
FAIRMONT       PTCLDY    -9 -13  84 NW8       30.47S WCI -26
GLENCOE        PTCLDY    -7 -11  84 W5        30.51R WCI -18
FARIBAULT      PTCLDY    -9 -13  84 W6        30.48S WCI -23
OWATONNA       PTCLDY   -17 -22  76 W3        30.47S
WASECA         MOCLDY   -15 -22  70 CALM      30.50S
ALBERT LEA     PTCLDY   -11 -15  84 NW2       30.45F
$$
MNZ078>079-086>088-094>096-271500-
   Southeast Minnesota

CITY           SKY/WX    TMP DP  RH WIND       PRES   REMARKS
ROCHESTER      MOCLDY    -6  -9  86 NW7       30.43R WCI -20
RED WING         N/A      0  -6  78 NW5       30.49S WCI -10
STANTON        MOCLDY    -8 -12  82 W3        30.48S
DODGE CENTER   MOCLDY    -6  -8  92 NW8       30.43S WCI -21
WINONA         CLEAR      9   1  72 NW9       30.49R WCI  -5
AUSTIN         PTCLDY    -8 -11  84 NW8       30.45R WCI -23
PRESTON        PTCLDY    -1  -5  82 NW8       30.42R WCI -15
$$
ABBREVIATIONS USED IN REMARKS
   TC - TEMPERATURES IN CELSIUS
  WCI - WIND CHILL INDEX
   HX - HEAT INDEX
  VSB - VISIBILITY
$$


USA.gov is the U.S. government's official web portal to all federal, state and local government web resources and services.